This is the latest recevied weather packets stored in our database for station/object GW3ATZ-10. If no packets are shown the sender has not sent any weather packets the latest 10 day(s).
| Time | Temp. | Humidity | Pressure | Rain* | Wind** | Luminosity | Snow |
|---|---|---|---|---|---|---|---|
| 1777662360 | 17.78° C | 50% | 1020.4 hPa | - | - | - | - |
| 1777658751 | 17.78° C | 50% | 1020.2 hPa | - | - | - | - |
| 1777655143 | 17.78° C | 50% | 1020.2 hPa | - | - | - | - |
| 1777651535 | 18.33° C | 49% | 1020.3 hPa | - | - | - | - |
| 1777647973 | 18.33° C | 48% | 1020.6 hPa | - | - | - | - |
| 1777644365 | 18.33° C | 46% | 1020.8 hPa | - | - | - | - |
| 1777640756 | 18.89° C | 45% | 1020.8 hPa | - | - | - | - |
| 1777637148 | 20° C | 41% | 1020.7 hPa | - | - | - | - |
| 1777633540 | 20° C | 35% | 1020.9 hPa | - | - | - | - |
| 1777629931 | 20° C | 36% | 1020.5 hPa | - | - | - | - |
| 1777626372 | 19.44° C | 37% | 1020.6 hPa | - | - | - | - |
| 1777622764 | 18.33° C | 42% | 1020.5 hPa | - | - | - | - |
| 1777619156 | 16.11° C | 42% | 1020.5 hPa | - | - | - | - |
| 1777615548 | 15.56° C | 42% | 1020.6 hPa | - | - | - | - |
| 1777611939 | 16.11° C | 42% | 1020.7 hPa | - | - | - | - |
| 1777608331 | 16.11° C | 42% | 1020.4 hPa | - | - | - | - |
| 1777604770 | 16.67° C | 41% | 1021 hPa | - | - | - | - |
| 1777601162 | 17.22° C | 41% | 1021.3 hPa | - | - | - | - |
| 1777597554 | 17.22° C | 41% | 1021.7 hPa | - | - | - | - |
| 1777593945 | 17.78° C | 41% | 1021.9 hPa | - | - | - | - |
| 1777590337 | 18.33° C | 41% | 1021.8 hPa | - | - | - | - |
| 1777586729 | 18.33° C | 41% | 1021.9 hPa | - | - | - | - |
| 1777583170 | 18.89° C | 40% | 1021.7 hPa | - | - | - | - |
| 1777579562 | 18.89° C | 39% | 1021.2 hPa | - | - | - | - |
| 1777575953 | 19.44° C | 39% | 1020.6 hPa | - | - | - | - |
* Rain since midnight (hover to see other rain measurements)
** Current wind speed in m/s (hover to see current wind gust speed)